Chester, CT

11:52 AM EST on December 12, 2019 (GMT -0500)
Chester

Weather History for KSNC - November, 2019

Change the Weather History Date:

Saturday, November 16, 2019

  Actual Average (WUND) Record (WUND)
Temperature  
Mean Temperature 32 °F -  
Max Temperature 39 °F - - (-1)
Min Temperature 24 °F - - (-1)
Degree Days  
Heating Degree Days 32    
Moisture  
Dew Point 1 °F    
Average Humidity 29    
Maximum Humidity 60    
Minimum Humidity 10    
Precipitation  
Precipitation 0.00 in - - ()
Sea Level Pressure  
Sea Level Pressure 30.40 in    
Wind  
Wind Speed 10 mph ()    
Max Wind Speed 17 mph    
Max Gust Speed 29 mph    
Visibility 10.0 miles    
Events      
Averages and records for this station are not official NWS values.
T = Trace of Precipitation, MM = Missing Value Source: Averaged Metar Reports

Daily Weather History Graph

Daily Weather History Graph

Search for Another Location

Airport or City:

Astronomy

Nov. 16, 2019 Rise Set
Actual Time 6:39 AM EST 4:29 PM EST
Civil Twilight 6:09 AM EST 4:59 PM EST
Nautical Twilight 5:36 AM EST 5:33 PM EST
Astronomical Twilight 5:03 AM EST 6:05 PM EST
Moon 7:58 PM EST (11/16) 10:31 AM EST (11/16)
Length of Visible Light 10h 49m
Length of Day
9h 50m
Waning Gibbous, 82% of the Moon is Illuminated
Nov 16
Waning Gibbous
Nov 19
Last Quarter
Nov 26
New
Dec 4
First Quarter
Dec 12
Full

Hourly Weather History & Observations

Time (EST) Temp. Windchill Dew Point Humidity Pressure Visibility Wind Dir Wind Speed Gust Speed Precip Events Conditions
12:15 AM 39.2 °F 33.0 °F 24.8 °F 56% 30.20 in 10.0 mi NNW 9.2 mph - N/A   Clear
12:35 AM 37.4 °F 30.8 °F 24.8 °F 60% 30.21 in 10.0 mi NNW 9.2 mph - N/A   Clear
12:55 AM 37.4 °F 29.3 °F 24.8 °F 60% 30.20 in 10.0 mi NNW 12.7 mph 18.4 mph N/A   Clear
1:15 AM 37.4 °F 28.9 °F 24.8 °F 60% 30.21 in 10.0 mi North 13.8 mph - N/A   Clear
1:35 AM 37.4 °F 30.3 °F 24.8 °F 60% 30.22 in 10.0 mi North 10.4 mph - N/A   Clear
1:55 AM 37.4 °F 30.8 °F 24.8 °F 60% 30.22 in 10.0 mi NNW 9.2 mph - N/A   Clear
2:15 AM 37.4 °F 30.8 °F 24.8 °F 60% 30.23 in 10.0 mi North 9.2 mph - N/A   Clear
2:35 AM 37.4 °F 29.3 °F 23.0 °F 56% 30.24 in 10.0 mi NNW 12.7 mph - N/A   Clear
3:15 AM 35.6 °F 25.9 °F 17.6 °F 48% 30.26 in 10.0 mi North 16.1 mph 24.2 mph N/A   Clear
3:35 AM 35.6 °F 27.5 °F 15.8 °F 44% 30.27 in 10.0 mi NNW 11.5 mph 26.5 mph N/A   Clear
3:55 AM 35.6 °F 28.0 °F 15.8 °F 44% 30.28 in 10.0 mi North 10.4 mph 17.3 mph N/A   Clear
4:15 AM 33.8 °F 24.8 °F 15.8 °F 48% 30.30 in 10.0 mi North 12.7 mph 19.6 mph N/A   Clear
4:35 AM 33.8 °F 23.2 °F 15.8 °F 48% 30.31 in 10.0 mi NNE 17.3 mph 28.8 mph N/A   Clear
4:55 AM 32.0 °F 24.2 °F 12.2 °F 44% 30.32 in 10.0 mi NNE 9.2 mph 17.3 mph N/A   Clear
5:15 AM 32.0 °F 22.5 °F 6.8 °F 35% 30.34 in 10.0 mi NNE 12.7 mph 19.6 mph N/A   Clear
5:35 AM 30.2 °F 19.3 °F 3.2 °F 32% 30.35 in 10.0 mi NNE 15.0 mph 20.7 mph N/A   Clear
5:55 AM 30.2 °F 21.3 °F 1.4 °F 29% 30.37 in 10.0 mi NNE 10.4 mph 18.4 mph N/A   Clear
6:15 AM 30.2 °F 21.9 °F 1.4 °F 29% 30.38 in 10.0 mi NNE 9.2 mph 18.4 mph N/A   Clear
6:35 AM 28.4 °F 21.2 °F 1.4 °F 31% 30.40 in 10.0 mi Variable 6.9 mph 12.7 mph N/A   Clear
6:55 AM 28.4 °F 20.4 °F -0.4 °F 29% 30.42 in 10.0 mi NNE 8.1 mph 15.0 mph N/A   Clear
7:15 AM 30.2 °F 21.9 °F -2.2 °F 25% 30.43 in 10.0 mi NNE 9.2 mph 16.1 mph N/A   Clear
7:35 AM 30.2 °F 21.3 °F -2.2 °F 25% 30.43 in 10.0 mi NNE 10.4 mph 19.6 mph N/A   Clear
7:55 AM 30.2 °F 20.2 °F -4.0 °F 23% 30.44 in 10.0 mi NNE 12.7 mph 26.5 mph N/A   Clear
8:15 AM 32.0 °F 22.1 °F -2.2 °F 23% 30.44 in 10.0 mi NNE 13.8 mph - N/A   Clear
8:35 AM 32.0 °F 23.6 °F -2.2 °F 23% 30.45 in 10.0 mi NNE 10.4 mph 17.3 mph N/A   Clear
8:55 AM 32.0 °F 22.1 °F -2.2 °F 23% 30.45 in 10.0 mi NNE 13.8 mph - N/A   Clear
9:15 AM 32.0 °F 23.0 °F -4.0 °F 21% 30.45 in 10.0 mi NNE 11.5 mph 23.0 mph N/A   Clear
9:35 AM 32.0 °F 23.0 °F -4.0 °F 21% 30.45 in 10.0 mi NNE 11.5 mph 19.6 mph N/A   Clear
10:15 AM 33.8 °F 24.8 °F -5.8 °F 18% 30.45 in 10.0 mi ENE 12.7 mph 23.0 mph N/A   Clear
10:35 AM 35.6 °F 26.6 °F -5.8 °F 17% 30.44 in 10.0 mi NNE 13.8 mph 21.9 mph N/A   Clear
10:55 AM 35.6 °F 26.2 °F -7.6 °F 16% 30.44 in 10.0 mi NNE 15.0 mph 24.2 mph N/A   Clear
11:15 AM 35.6 °F 26.6 °F -7.6 °F 16% 30.44 in 10.0 mi NE 13.8 mph 21.9 mph N/A   Clear
11:35 AM 35.6 °F 25.9 °F -9.4 °F 14% 30.43 in 10.0 mi NNE 16.1 mph - N/A   Clear
11:55 AM 35.6 °F 28.0 °F -9.4 °F 14% 30.43 in 10.0 mi NE 10.4 mph 21.9 mph N/A   Clear
12:15 PM 37.4 °F 28.9 °F -11.2 °F 12% 30.42 in 10.0 mi NNE 13.8 mph 19.6 mph N/A   Clear
12:35 PM 37.4 °F 29.8 °F -13.0 °F 11% 30.42 in 10.0 mi NE 11.5 mph 20.7 mph N/A   Clear
12:55 PM 39.2 °F 31.6 °F -13.0 °F 10% 30.42 in 10.0 mi NE 12.7 mph 19.6 mph N/A   Clear
1:15 PM 39.2 °F 30.8 °F -14.8 °F 10% 30.42 in 10.0 mi NE 15.0 mph 21.9 mph N/A   Clear
1:35 PM 39.2 °F 30.5 °F -14.8 °F 10% 30.42 in 10.0 mi NNE 16.1 mph - N/A   Clear
1:55 PM 39.2 °F 32.5 °F -14.8 °F 10% 30.42 in 10.0 mi NE 10.4 mph 20.7 mph N/A   Clear
2:15 PM 39.2 °F 32.0 °F -14.8 °F 10% 30.41 in 10.0 mi NE 11.5 mph 19.6 mph N/A   Clear
2:35 PM 39.2 °F 31.2 °F -14.8 °F 10% 30.40 in 10.0 mi NE 13.8 mph - N/A   Clear
2:55 PM 39.2 °F 32.0 °F -14.8 °F 10% 30.41 in 10.0 mi NE 11.5 mph - N/A   Clear
3:15 PM 39.2 °F 33.0 °F -13.0 °F 10% 30.41 in 10.0 mi NE 9.2 mph 15.0 mph N/A   Clear
3:35 PM 37.4 °F 31.4 °F -14.8 °F 10% 30.42 in 10.0 mi NE 8.1 mph 13.8 mph N/A   Clear
4:15 PM 35.6 °F 30.7 °F -13.0 °F 12% 30.43 in 10.0 mi North 5.8 mph - N/A   Clear
4:35 PM 33.8 °F 30.8 °F -0.4 °F 23% 30.44 in 10.0 mi North 3.5 mph - N/A   Clear
4:55 PM 32.0 °F 26.4 °F -0.4 °F 25% 30.44 in 10.0 mi North 5.8 mph - N/A   Clear
5:15 PM 32.0 °F 26.4 °F -0.4 °F 25% 30.44 in 10.0 mi NNW 5.8 mph - N/A   Clear
5:35 PM 32.0 °F 24.8 °F -0.4 °F 25% 30.44 in 10.0 mi North 8.1 mph - N/A   Clear
5:55 PM 30.2 °F 23.4 °F -0.4 °F 27% 30.45 in 10.0 mi North 6.9 mph - N/A   Clear
6:15 PM 30.2 °F 24.3 °F -0.4 °F 27% 30.45 in 10.0 mi North 5.8 mph - N/A   Clear
6:35 PM 30.2 °F 24.3 °F -0.4 °F 27% 30.46 in 10.0 mi North 5.8 mph - N/A   Clear
6:55 PM 30.2 °F 24.3 °F -0.4 °F 27% 30.46 in 10.0 mi North 5.8 mph - N/A   Clear
7:15 PM 30.2 °F 24.3 °F -0.4 °F 27% 30.47 in 10.0 mi North 5.8 mph - N/A   Clear
7:35 PM 30.2 °F 23.4 °F -0.4 °F 27% 30.47 in 10.0 mi North 6.9 mph - N/A   Clear
7:55 PM 28.4 °F 21.2 °F -0.4 °F 29% 30.47 in 10.0 mi NNE 6.9 mph - N/A   Clear
8:15 PM 28.4 °F 22.2 °F 1.4 °F 31% 30.46 in 10.0 mi NNE 5.8 mph - N/A   Clear
8:35 PM 28.4 °F 21.2 °F 1.4 °F 31% 30.46 in 10.0 mi NNE 6.9 mph - N/A   Clear
8:55 PM 28.4 °F 23.3 °F 1.4 °F 31% 30.46 in 10.0 mi NNE 4.6 mph 12.7 mph N/A   Clear
9:15 PM 28.4 °F 21.2 °F 1.4 °F 31% 30.47 in 10.0 mi NNE 6.9 mph - N/A   Clear
9:35 PM 28.4 °F 20.4 °F -0.4 °F 29% 30.47 in 10.0 mi NNE 8.1 mph - N/A   Clear
9:55 PM 26.6 °F 19.1 °F -0.4 °F 31% 30.46 in 10.0 mi NE 6.9 mph - N/A   Clear
10:15 PM 26.6 °F 17.5 °F -0.4 °F 31% 30.45 in 10.0 mi NE 9.2 mph - N/A   Clear
10:35 PM 26.6 °F 21.2 °F -0.4 °F 31% 30.45 in 10.0 mi NNE 4.6 mph - N/A   Clear
10:55 PM 26.6 °F 18.2 °F -0.4 °F 31% 30.44 in 10.0 mi NNE 8.1 mph - N/A   Clear
11:15 PM 26.6 °F 20.0 °F -0.4 °F 31% 30.44 in 10.0 mi NE 5.8 mph 11.5 mph N/A   Clear
11:35 PM 26.6 °F 21.2 °F -0.4 °F 31% 30.43 in 10.0 mi NNE 4.6 mph - N/A   Clear
11:55 PM 24.8 °F 17.9 °F -2.2 °F 31% 30.44 in 10.0 mi NNE 5.8 mph 12.7 mph N/A   Clear